Dewpoint
55 55 55 56 56 56 55 55 55 55 56 56 57 58 59 59 58 53 32 32 42 57 59 19 24 23 26 27 25 20 15 12 13 33 41 46 43 53 55 53 53 46 50 54 55
55 55 55 54 55 55 55 54 54 55 56 56 56 57 58 59 49 35 45 58 61 65 23 21 16 23 20 22 20 16 13 13 15 39 37 41 44 52 50 55 54 50 50 51 52
54 54 54 53 53 54 55 54 54 55 55 55 56 57 58 57 44 32 64 57 62 60 24 20 14 16 18 19 16 15 11 12 16 24 39 39 45 52 47 48 54 54 53 51 49
53 53 53 52 53 53 54 54 53 54 54 55 56 57 57 52 31 36 66 65 63 38 22 17 20 21 15 12 12 10 9 10 15 17 24 19 43 45 47 51 52 52 54 55 53
53 52 52 51 52 53 54 54 53 53 54 54 56 57 54 42 32 42 64 64 44 28 19 20 27 23 17 17 10 8 8 9 8 9 17 19 34 47 50 51 51 54 51 53 55
52 52 51 51 53 53 53 54 53 54 54 55 57 57 46 30 30 50 39 38 24 21 20 23 25 22 18 13 11 10 11 8 6 6 10 16 42 47 49 52 52 52 51 53 55
53 53 52 52 53 53 53 53 53 53 54 56 59 52 39 32 30 42 31 24 23 19 22 24 26 21 15 18 17 18 14 9 11 7 7 12 14 29 48 50 51 54 55 54 54
52 52 51 52 52 53 53 53 53 53 55 58 57 48 40 30 31 30 33 27 23 22 24 26 23 19 21 24 21 17 15 14 11 13 4 9 10 16 46 46 46 46 48 50 53
52 51 51 51 52 52 52 52 53 54 56 58 53 48 37 38 29 28 28 32 24 24 24 21 23 19 23 21 19 19 15 13 12 11 8 9 10 15 40 46 46 46 45 47 53
51 51 51 51 51 51 51 52 52 54 55 51 43 38 38 31 25 24 21 28 24 23 24 23 26 25 24 20 16 15 15 13 9 9 10 11 13 16 21 26 42 39 50 58 62
50 50 50 50 51 50 49 42 43 45 44 37 32 32 23 32 29 22 21 25 28 23 21 23 24 23 23 21 18 16 15 11 14 15 14 14 15 21 20 24 29 48 51 60 61
49 51 51 50 50 49 49 41 26 23 23 26 31 36 35 34 24 21 18 21 28 21 21 21 22 22 21 20 19 17 15 14 19 20 19 19 19 24 23 24 30 54 54 56 60
50 50 50 50 49 48 37 31 24 25 29 27 24 22 32 34 26 27 22 18 26 26 18 19 22 23 20 19 18 16 21 19 18 15 14 19 22 21 21 23 49 55 57 56 56
49 49 50 49 44 39 35 28 23 30 32 28 24 21 22 32 26 19 24 20 23 24 21 19 21 20 20 19 18 17 21 19 15 14 12 20 16 21 22 22 42 50 57 55 54
49 49 49 48 42 39 36 34 24 32 29 28 21 20 19 26 20 15 21 20 21 23 23 19 19 20 19 20 18 19 23 20 22 22 15 15 15 17 25 21 48 50 56 57 59
49 49 48 41 41 41 38 30 31 29 27 28 23 19 18 23 23 19 17 19 22 23 23 22 22 19 19 21 20 23 22 20 24 23 19 17 18 14 19 37 46 47 53 53 53
48 48 46 41 35 32 35 33 25 24 23 22 24 21 21 21 21 20 16 14 19 20 21 22 21 19 18 20 21 20 19 23 23 20 20 20 19 16 31 45 45 46 49 50 51
48 47 45 40 40 38 39 30 24 19 19 23 22 21 21 21 21 20 18 12 20 22 22 20 20 20 18 19 18 21 21 26 20 22 19 24 24 24 46 46 46 46 48 49 50
47 39 37 40 40 39 36 26 23 21 17 20 17 21 22 21 20 21 21 17 15 20 19 22 20 21 17 19 18 18 21 23 25 25 24 25 35 40 45 45 45 46 47 48 49
40 38 38 37 41 41 33 28 24 22 20 22 19 21 22 21 21 21 22 24 21 20 21 20 21 24 21 16 20 19 25 22 27 23 23 24 30 36 42 44 45 45 46 48 49
41 39 39 38 42 36 29 27 24 22 23 24 21 19 18 21 24 22 23 23 26 20 22 20 24 20 22 23 17 19 19 24 29 28 25 25 29 35 40 44 44 45 48 48 49
39 33 39 41 36 36 30 29 31 25 27 26 25 22 20 21 23 23 24 27 29 23 21 25 24 25 20 24 22 21 20 24 27 26 33 34 34 40 41 41 45 45 48 48 50
36 34 37 43 32 32 33 30 29 28 27 26 25 23 22 21 26 28 24 26 23 27 25 26 27 23 25 26 27 19 22 26 29 35 31 33 34 38 40 39 44 45 48 50 51
36 31 34 40 37 34 31 31 29 29 29 30 26 24 23 21 26 25 21 23 22 22 48 37 35 23 23 24 30 26 23 21 28 29 27 30 30 36 46 47 51 53 55 56 57
37 32 34 30 33 34 34 32 31 31 30 29 31 28 22 21 21 22 22 21 24 33 36 35 32 36 28 29 26 28 26 21 21 31 27 27 30 42 47 49 54 53 54 56 57
35 35 35 32 35 33 33 31 29 31 32 32 29 32 36 25 22 25 28 23 26 36 34 40 30 36 32 27 22 21 25 27 24 28 28 30 31 44 49 49 52 52 52 54 53
39 38 37 35 32 29 28 27 24 26 30 31 33 35 37 38 37 31 27 28 29 30 28 37 37 35 29 29 26 24 25 27 30 30 26 27 41 46 47 47 48 48 50 52 50
Lifted_Index
14 14 14 14 14 15 15 15 15 15 14 14 13 13 12 12 11 9 8 8 9 9 9 9 8 7 5 5 5 5 3 1 0 0 -0 -0 -0 -1 -1 -1 -1 -2 -2 -1 -1
14 14 15 15 15 15 15 15 15 15 14 14 14 13 12 12 10 9 8 9 9 9 9 8 7 7 5 4 4 4 3 2 1 -0 -1 -1 -1 -1 -1 -1 -1 -1 -1 -1 -0
15 15 15 15 15 15 15 15 15 15 15 14 14 13 13 11 9 8 7 8 9 9 9 8 7 7 5 4 4 4 3 2 1 0 -1 -1 -1 -2 -1 -1 -1 -1 -1 -1 0
15 15 16 16 16 16 16 15 15 15 15 15 14 13 12 11 8 7 7 7 8 9 9 8 7 6 6 5 4 3 3 2 1 0 -0 -1 -1 -2 -1 -1 -1 -1 -1 -1 -0
16 16 16 16 16 16 16 16 16 15 15 15 14 13 12 10 8 8 8 8 9 9 8 7 7 6 5 5 4 3 2 2 1 1 0 -0 -1 -1 -1 -1 -1 -1 -1 -1 -1
16 16 16 16 16 16 16 16 16 15 15 14 13 12 11 9 8 8 8 8 9 8 8 7 6 6 5 5 4 3 2 2 1 1 1 0 -0 -1 -1 -1 -1 -1 -1 -1 -1
15 15 15 16 16 16 16 16 16 15 14 13 12 12 10 9 9 8 7 8 8 9 8 7 6 6 5 5 4 4 3 2 2 2 1 1 1 0 -1 -1 -1 -1 -2 -2 -2
14 14 15 15 15 15 15 15 15 15 14 12 12 11 10 10 9 8 7 7 8 9 8 7 7 6 6 5 5 4 3 2 2 2 1 1 1 1 -0 -1 -1 -2 -3 -3 -3
13 14 14 14 15 15 15 14 14 13 12 12 11 10 9 9 9 9 8 7 8 8 8 7 7 6 6 5 4 3 3 2 1 1 1 1 1 1 0 -1 -1 -2 -3 -3 -4
14 13 13 13 14 14 13 12 11 11 10 10 10 10 9 9 9 9 8 8 8 8 8 7 7 6 5 4 3 2 2 1 0 0 0 0 1 1 0 -0 -1 -2 -3 -4 -4
14 14 13 13 13 13 11 10 9 9 9 9 9 9 9 9 9 9 9 8 7 7 7 7 6 5 4 4 3 2 1 0 0 0 0 0 1 1 0 -0 -1 -3 -4 -4 -4
14 14 13 13 13 12 11 10 9 9 8 8 8 8 8 8 8 8 9 8 7 7 7 6 5 4 4 4 3 2 1 1 0 0 0 0 0 1 0 -0 -2 -3 -4 -4 -4
14 14 13 13 12 11 10 10 10 10 8 6 7 7 7 7 8 8 8 8 7 7 7 6 5 5 4 4 3 2 2 1 1 0 0 0 0 1 0 -0 -2 -3 -4 -3 -3
13 13 13 12 11 10 10 10 11 9 6 5 5 6 7 7 7 7 8 8 7 7 6 6 5 5 5 4 3 3 2 2 2 1 0 0 1 1 1 -0 -2 -3 -3 -3 -3
13 13 13 12 11 10 10 11 10 8 4 4 5 6 6 6 6 7 7 7 7 6 6 6 5 5 4 4 3 3 3 2 2 2 1 1 1 1 1 -0 -2 -3 -3 -3 -3
13 13 13 12 11 11 11 10 9 6 3 3 4 5 5 6 6 6 7 7 6 6 5 5 5 4 4 3 3 3 3 2 2 2 2 1 1 1 1 -1 -1 -2 -2 -2 -2
13 13 12 12 11 11 10 9 7 4 3 3 3 4 4 5 5 6 6 6 6 5 5 5 5 4 4 3 3 3 3 2 2 1 1 1 1 1 0 -1 -1 -1 -1 -1 -1
14 13 12 11 11 11 10 8 5 4 3 2 2 3 4 4 4 5 5 6 6 5 4 4 4 4 3 3 2 3 3 2 1 0 0 0 0 -0 -1 -1 -1 -1 -0 0 1
14 13 12 11 10 10 9 7 5 5 4 3 3 3 3 3 3 3 4 4 5 5 4 4 3 3 3 2 2 2 2 2 2 1 0 0 -0 -1 -2 -2 -1 -1 -0 1 1
14 13 11 10 10 9 8 6 6 6 5 4 3 3 3 2 2 2 3 3 4 4 4 4 3 3 2 1 1 1 2 2 1 1 0 0 -0 -1 -2 -2 -1 -1 -0 0 0
13 11 9 9 9 8 7 7 7 7 6 5 5 4 3 2 2 2 2 2 2 3 3 3 3 2 1 1 0 1 1 1 1 1 0 0 -0 -1 -1 -1 -1 -0 -0 -0 0
12 10 9 8 8 8 8 8 8 8 7 6 6 6 5 3 2 2 2 2 1 1 2 3 3 2 1 1 1 0 1 1 1 1 0 -0 -0 -0 -0 -0 -0 -0 -0 -0 -0
12 10 8 8 8 8 8 8 8 7 7 7 7 6 6 5 3 3 2 2 1 1 1 1 2 2 1 1 1 0 0 1 1 1 0 0 -0 -0 -1 -1 -1 -0 -1 -1 -1
11 10 9 8 8 8 8 8 8 7 7 6 6 6 6 6 5 4 3 2 1 1 0 0 1 1 2 1 1 0 0 1 1 0 0 0 0 -1 -1 -1 -1 -1 -1 -1 -1
11 10 9 8 8 8 8 7 7 7 6 6 5 5 6 6 6 5 4 3 2 1 0 -0 0 1 1 2 1 0 0 1 1 1 0 0 0 -1 -1 -1 -1 -1 -1 -1 -1
11 10 10 9 8 8 8 7 7 7 7 6 5 5 5 6 6 5 5 4 2 2 1 -0 0 0 1 1 1 1 1 1 1 0 0 0 -0 -1 -1 -1 -1 -1 -0 -1 -1
11 11 10 9 9 9 8 8 8 8 7 6 6 5 5 5 5 5 5 4 3 2 1 0 0 0 1 1 1 1 1 1 1 0 -0 -0 -1 -1 -1 -1 -1 -0 -0 -1 -1